Vertical_Velocity
-7 -3 3 -0 -7 -5 -0 1 0 1 -2 2 -1 -4 0 5 1 -6 5 3 3 -1 -2 5 1 3 -1 -1 -0 -3 1 1 -1 -3 -1 -1 0 -1 1 2 -1 -2 1 0 0 0 -0 -0 2
0 3 -1 1 -7 -2 -0 1 0 2 0 7 -4 -1 -6 2 -1 -3 -2 -2 2 2 -2 9 -0 2 1 -1 -2 1 1 -0 -0 1 -1 -2 -1 -1 -0 -1 2 0 -0 -1 -0 2 2 1 2
1 2 1 -2 -1 -2 -2 0 1 3 4 2 0 0 0 1 3 -1 -1 -3 2 -0 -1 6 0 -1 3 0 -1 -0 -2 -1 0 -0 -0 -2 -4 -1 -1 -2 0 -0 -1 0 1 -0 1 1 1
6 2 -3 -2 -0 2 -2 1 -0 3 8 -1 -0 -2 2 10 -3 -0 -1 -1 -1 -1 6 4 3 -1 -0 1 2 -2 -0 -2 0 1 1 -1 -4 -0 -2 1 -1 1 0 -1 0 2 -0 0 -1
2 1 -2 -0 1 2 2 -1 -0 0 1 2 -2 4 -0 6 -0 -0 0 1 1 -1 -0 6 1 6 1 0 -1 0 0 -1 -0 2 1 -0 -3 0 -1 1 -2 -0 -1 2 2 3 0 -0 1
-2 0 -2 -0 1 3 3 -1 -3 -1 3 7 -4 -3 4 8 1 -1 2 2 4 -1 2 10 4 -1 3 2 -0 1 0 -1 -0 -1 -1 1 0 1 -1 -0 -2 -0 2 -2 -2 0 -0 -2 -3
-1 -1 -0 0 2 3 1 3 -3 -1 -0 4 -3 -2 6 6 0 -1 -1 2 8 4 -2 1 3 4 3 0 -14 -1 2 -0 -4 3 -1 3 0 -1 -4 1 -3 -1 2 0 -3 -2 3 1 -0
2 -2 -1 -0 -0 2 3 -0 2 -6 6 -6 -2 -2 -1 0 1 1 2 -1 -0 0 -1 0 1 1 -1 3 -4 2 3 -0 -0 2 2 2 1 0 -0 0 -0 -1 2 3 2 -2 -0 1 1
7 -5 -1 0 -2 2 5 -3 8 4 -10 5 4 -9 -5 1 -0 1 -2 4 2 1 -1 -1 -2 1 1 3 2 3 5 -0 4 -3 3 1 0 0 2 0 3 1 1 1 2 -1 0 1 1
-3 -1 -1 -1 -1 -1 1 -5 -4 -3 6 5 -1 6 1 0 3 -1 -2 -0 0 -3 -2 -0 2 -1 -1 -3 -2 2 -2 0 3 -2 1 1 1 2 3 2 -0 -0 -0 4 3 2 0 0 1
1 -2 0 6 -2 -5 -1 4 -2 -3 2 -5 -13 -3 -1 -1 3 -1 0 -0 1 0 1 -1 -0 -0 2 3 1 -1 2 -9 4 -1 6 1 -2 0 -2 0 -4 -2 1 -0 0 -0 1 1 0
-3 -1 1 4 1 -1 -1 -1 2 3 -2 -13 -0 -3 -4 -1 -2 -1 -1 -0 -7 -3 1 -1 1 -1 -1 -0 -0 2 -0 -1 1 -1 3 3 0 0 -0 1 2 -2 -1 0 2 2 1 2 0
1 1 0 10 1 2 -2 -0 -6 0 2 -4 1 1 -2 -0 0 -1 1 1 1 -1 1 -1 -1 -1 0 1 -1 1 4 -13 2 2 2 1 -0 1 -1 0 0 -1 -1 1 1 -1 -1 -2 2
0 -0 1 6 5 5 -4 2 -8 4 2 11 -4 -6 -3 -2 -1 -1 -1 -2 1 -2 0 0 -2 -1 2 -0 0 3 -2 2 -1 2 4 -2 -1 0 1 2 1 2 0 -1 -1 -3 -3 -1 -2
0 0 2 3 3 2 -1 -1 -1 -1 8 2 6 4 3 2 -0 -0 2 0 1 2 -2 1 -0 -0 1 1 2 3 2 1 3 3 0 1 -2 3 4 3 1 -5 -4 3 3 3 -1 2 4
-3 -6 -1 1 1 6 -5 -1 -1 1 -1 -1 0 5 6 3 -0 2 -1 2 -0 1 -2 -2 -1 0 2 -1 2 1 1 1 1 1 0 -1 2 5 4 -1 -0 -2 -6 -5 -3 1 -4 2 2
-4 -1 -1 3 1 -2 -5 -1 -0 3 1 1 4 4 -2 -3 -1 -1 -0 3 -1 1 -1 -3 1 2 -1 0 -0 -2 1 1 1 1 -0 4 2 2 -0 1 -2 0 1 3 6 -0 -2 -2 -2
-6 0 1 1 -1 -2 -1 -1 2 1 5 4 3 3 -2 -1 -5 -1 1 0 -0 0 1 0 1 1 0 -0 0 2 2 2 1 2 0 3 4 -0 -0 -0 2 -2 0 3 -0 -2 2 -3 -3
-2 -3 -2 -0 0 -1 1 -0 -1 2 2 -2 -1 -0 -1 5 -2 2 3 6 -0 -1 2 -1 -0 -4 -3 -3 -3 -0 -1 2 3 3 0 2 -2 1 -2 2 -4 -3 -0 1 -2 0 -1 1 1
-1 -1 0 -0 -1 -1 -1 -2 -2 -0 -5 -5 -4 0 -2 3 -3 1 1 -0 2 0 2 -2 -1 1 -1 0 3 2 1 0 -6 -2 1 2 1 4 5 -1 -2 2 -1 -0 -2 1 -1 0 2
-0 -2 -0 -3 -1 -2 -2 -5 1 1 1 1 7 7 12 -2 -2 -3 -0 -0 -1 -2 -1 -1 1 4 3 -1 0 1 1 -0 1 -5 -7 -1 -0 -1 -9 -5 0 -3 -1 1 3 -1 2 -3 4
0 -1 -1 0 -1 -1 -4 -6 -1 1 1 2 1 -6 -5 1 -1 7 1 -6 -6 0 1 5 -4 2 2 -2 -1 -1 -2 -6 -8 -9 5 3 1 -2 4 2 -2 -1 0 -1 -1 -3 0 -4 2
-2 -2 -1 -1 -1 -2 3 -2 -12 -0 2 -2 -0 -3 -5 -1 2 -1 -3 -2 -1 -2 -3 3 4 2 4 -0 5 10 2 5 -2 5 6 -4 2 -1 1 -0 2 3 3 1 5 5 3 -2 -2
-1 -4 -2 -2 -1 -1 -3 -3 -7 -3 -11 -0 1 1 -0 -5 0 1 5 6 0 -0 -3 1 1 -2 -0 -4 1 -7 -10 -13 -3 -0 -1 4 1 -1 3 2 -1 1 6 4 4 4 -1 -2 -0
-4 -5 -4 -5 -2 -7 -0 0 -13 -2 -0 -7 -6 -4 -0 -4 -2 -3 -2 -8 -1 -4 1 -2 -1 -1 1 -0 4 5 4 -4 1 -1 4 6 1 3 3 -1 -1 1 1 4 3 7 0 -6 -2
-3 -6 -7 -4 -2 -3 -0 -4 -17 -3 -2 1 -1 -1 8 -1 1 -4 -1 -3 -2 1 -2 -2 -3 -0 1 -2 -1 -3 5 8 8 4 -0 5 2 3 -1 -1 -1 6 3 3 4 2 1 -3 0
-8 -0 -3 -5 -1 -1 -4 -6 -6 1 -0 2 2 -3 0 -2 -4 -3 -2 -1 -2 -3 -4 -4 -2 -1 -0 -0 1 2 -3 -6 -3 -3 -5 3 3 3 3 -1 -1 2 4 4 1 -1 -5 -1 -1
-10 -5 -5 -3 -0 -0 -3 -1 -8 1 1 1 3 -1 -1 3 2 1 -2 -1 -1 -3 2 4 2 2 -0 2 2 2 4 -1 3 8 -0 9 9 2 -2 2 -4 -3 -1 -1 -0 -3 0 1 -1
3 1 -2 -6 0 -4 -1 -9 -5 -3 -2 -2 -1 -2 -7 -4 -4 -5 -2 -0 1 1 -2 -2 -1 -3 2 3 4 3 -2 -1 3 1 1 -3 -3 1 2 -2 -1 0 -2 1 -1 -1 -2 -6 -3
-3 -3 -4 -4 -2 -2 -4 -14 0 -2 -1 -2 -2 -2 -4 0 -4 -5 -4 -1 -8 -8 -1 -4 2 1 7 6 0 4 -1 -4 -1 -1 -7 -3 -1 -3 -4 -3 -0 2 1 0 0 2 -1 2 2
Height
1503 1504 1506 1507 1514 1511 1518 1512 1503 1506 1508 1509 1507 1507 1514 1514 1516 1531 1522 1523 1524 1525 1526 1528 1529 1530 1531 1532 1535 1537 1539 1541 1543 1545 1548 1550 1553 1555 1557 1558 1560 1561 1563 1564 1565 1566 1567 1567 1568
1504 1505 1508 1507 1520 1529 1523 1507 1511 1508 1509 1509 1510 1513 1515 1521 1519 1521 1523 1525 1526 1527 1528 1530 1531 1533 1534 1536 1538 1540 1542 1545 1546 1549 1551 1553 1556 1558 1560 1562 1562 1563 1565 1566 1567 1568 1569 1570 1570
1506 1507 1510 1511 1518 1527 1524 1510 1510 1511 1510 1509 1512 1514 1517 1523 1523 1524 1525 1526 1528 1528 1530 1533 1533 1536 1537 1539 1541 1543 1545 1547 1549 1552 1553 1556 1559 1560 1562 1563 1565 1565 1566 1568 1569 1570 1570 1571 1571
1509 1510 1510 1514 1510 1506 1507 1509 1510 1511 1512 1512 1513 1518 1523 1525 1524 1526 1527 1528 1530 1530 1532 1534 1537 1538 1541 1542 1544 1546 1548 1550 1553 1554 1556 1558 1561 1562 1564 1565 1566 1567 1569 1570 1571 1571 1571 1572 1573
1510 1509 1513 1514 1508 1505 1507 1510 1511 1512 1513 1514 1516 1523 1525 1526 1527 1527 1528 1530 1531 1532 1535 1538 1538 1541 1543 1545 1547 1548 1551 1553 1555 1557 1559 1560 1562 1564 1565 1566 1568 1569 1570 1571 1572 1573 1573 1574 1575
1510 1511 1520 1519 1512 1507 1511 1513 1513 1515 1518 1520 1522 1523 1529 1531 1529 1529 1531 1532 1534 1534 1536 1539 1540 1542 1545 1547 1549 1551 1553 1555 1557 1559 1561 1562 1564 1565 1567 1568 1569 1571 1573 1574 1574 1575 1576 1576 1577
1513 1513 1516 1511 1515 1514 1514 1516 1514 1516 1520 1524 1525 1528 1533 1533 1532 1531 1532 1533 1535 1536 1538 1540 1542 1544 1547 1547 1548 1552 1555 1557 1559 1561 1562 1564 1566 1567 1568 1570 1572 1573 1575 1576 1576 1577 1577 1578 1579
1510 1510 1514 1510 1518 1518 1516 1517 1519 1515 1522 1524 1525 1531 1534 1533 1534 1533 1533 1534 1536 1538 1539 1541 1544 1545 1548 1550 1551 1555 1558 1559 1561 1563 1564 1566 1567 1569 1570 1572 1574 1576 1577 1578 1579 1580 1580 1581 1581
1508 1517 1518 1513 1513 1513 1515 1517 1521 1521 1522 1525 1526 1527 1531 1533 1535 1535 1534 1536 1537 1539 1541 1543 1545 1547 1549 1551 1554 1557 1560 1561 1563 1565 1566 1568 1569 1571 1573 1575 1577 1579 1580 1581 1582 1583 1583 1583 1583
1509 1519 1509 1502 1504 1508 1513 1515 1517 1522 1526 1527 1526 1531 1534 1536 1537 1536 1536 1536 1538 1539 1541 1544 1546 1548 1550 1552 1555 1557 1559 1560 1564 1566 1567 1569 1572 1574 1575 1577 1579 1580 1582 1583 1584 1585 1585 1585 1584
1507 1511 1502 1506 1505 1505 1513 1517 1519 1522 1526 1524 1527 1530 1535 1537 1538 1538 1537 1537 1538 1539 1541 1543 1546 1549 1552 1554 1557 1559 1561 1561 1565 1567 1570 1571 1573 1575 1577 1578 1580 1581 1582 1583 1584 1585 1586 1585 1584
1507 1505 1504 1505 1507 1512 1514 1519 1522 1522 1522 1526 1528 1531 1534 1536 1536 1537 1536 1536 1538 1540 1542 1543 1546 1549 1553 1556 1558 1561 1562 1564 1565 1569 1572 1573 1576 1578 1579 1580 1581 1582 1583 1584 1584 1585 1585 1584 1583
1505 1501 1503 1506 1508 1510 1514 1517 1520 1521 1524 1529 1531 1534 1536 1536 1537 1537 1538 1538 1539 1539 1540 1543 1546 1550 1553 1556 1559 1561 1563 1566 1568 1571 1574 1576 1578 1580 1581 1582 1582 1583 1584 1584 1585 1585 1585 1583 1582
1501 1505 1507 1507 1511 1517 1517 1519 1518 1524 1526 1528 1530 1532 1533 1535 1535 1537 1537 1538 1539 1540 1541 1543 1546 1550 1553 1556 1559 1562 1563 1567 1570 1573 1575 1578 1580 1581 1582 1583 1584 1584 1585 1586 1586 1586 1584 1583 1581
1503 1505 1508 1511 1510 1512 1519 1525 1524 1523 1526 1528 1528 1528 1531 1535 1537 1537 1539 1540 1540 1540 1542 1545 1547 1551 1554 1557 1561 1563 1566 1568 1571 1574 1577 1579 1581 1583 1584 1585 1586 1585 1585 1585 1585 1585 1583 1581 1579
1506 1511 1520 1513 1513 1519 1519 1534 1523 1524 1525 1526 1526 1528 1531 1535 1537 1539 1541 1542 1542 1543 1544 1546 1548 1551 1554 1559 1562 1564 1567 1569 1572 1575 1578 1580 1583 1585 1586 1586 1585 1584 1584 1583 1583 1583 1582 1580 1578
1518 1531 1525 1522 1518 1519 1522 1529 1521 1523 1524 1526 1530 1532 1534 1536 1538 1539 1541 1543 1544 1545 1545 1547 1549 1551 1555 1559 1563 1566 1568 1570 1573 1575 1578 1581 1583 1585 1585 1585 1585 1584 1584 1583 1582 1581 1580 1578 1575
1533 1529 1529 1534 1525 1523 1522 1526 1520 1522 1526 1536 1534 1532 1533 1533 1534 1538 1541 1543 1545 1546 1548 1549 1550 1553 1556 1559 1562 1566 1568 1570 1573 1576 1580 1582 1583 1584 1584 1584 1584 1584 1583 1582 1581 1579 1577 1575 1573
1516 1521 1529 1527 1526 1526 1529 1530 1526 1528 1529 1524 1532 1531 1532 1533 1536 1539 1542 1543 1545 1547 1548 1550 1551 1554 1556 1559 1561 1564 1567 1570 1574 1577 1580 1581 1583 1583 1584 1583 1583 1582 1581 1580 1579 1576 1575 1574 1572
1514 1527 1530 1528 1523 1519 1521 1526 1523 1524 1523 1517 1522 1527 1529 1533 1537 1539 1541 1543 1544 1547 1549 1552 1553 1555 1557 1560 1562 1564 1567 1570 1572 1575 1577 1580 1582 1583 1582 1582 1581 1580 1579 1578 1576 1575 1574 1572 1572
1522 1527 1528 1526 1521 1516 1524 1531 1520 1518 1520 1524 1522 1523 1528 1528 1533 1537 1539 1541 1544 1546 1549 1552 1554 1557 1559 1561 1563 1565 1567 1569 1572 1575 1577 1580 1581 1581 1580 1578 1577 1576 1575 1574 1574 1573 1573 1571 1571
1531 1519 1517 1520 1527 1540 1530 1551 1518 1515 1514 1516 1522 1523 1524 1527 1532 1535 1538 1540 1541 1545 1550 1553 1555 1558 1560 1562 1564 1566 1568 1569 1572 1575 1578 1580 1579 1577 1577 1576 1575 1573 1573 1572 1571 1571 1570 1569 1569
1518 1519 1522 1524 1535 1536 1536 1546 1521 1510 1516 1513 1515 1516 1518 1522 1528 1532 1534 1537 1540 1545 1549 1552 1555 1558 1560 1561 1564 1566 1570 1572 1574 1575 1576 1576 1575 1573 1572 1572 1572 1571 1571 1571 1570 1569 1568 1567 1566
1508 1521 1529 1531 1541 1553 1535 1539 1526 1516 1503 1504 1506 1510 1513 1518 1524 1530 1534 1538 1541 1544 1548 1551 1554 1557 1559 1562 1565 1567 1571 1571 1571 1571 1572 1572 1573 1572 1570 1570 1570 1570 1569 1569 1568 1566 1565 1565 1565
1513 1532 1559 1560 1558 1556 1535 1541 1517 1497 1492 1495 1498 1503 1508 1514 1521 1528 1532 1535 1539 1542 1545 1549 1552 1555 1556 1559 1563 1565 1569 1569 1568 1568 1568 1569 1569 1568 1567 1568 1569 1568 1567 1567 1565 1563 1563 1563 1563
1512 1524 1546 1554 1564 1549 1538 1540 1510 1486 1488 1489 1491 1494 1504 1510 1518 1524 1528 1532 1537 1540 1544 1546 1549 1552 1556 1558 1562 1565 1568 1568 1568 1568 1566 1567 1567 1566 1566 1566 1566 1566 1565 1564 1563 1562 1562 1561 1562
1517 1525 1524 1542 1542 1547 1532 1513 1490 1486 1487 1489 1492 1500 1503 1508 1515 1520 1526 1531 1536 1539 1542 1544 1547 1551 1555 1558 1561 1564 1567 1567 1566 1566 1567 1567 1566 1565 1565 1564 1564 1564 1563 1562 1561 1559 1560 1560 1560
1505 1506 1531 1538 1555 1547 1532 1523 1506 1488 1486 1487 1492 1496 1503 1506 1513 1518 1524 1528 1533 1537 1540 1543 1547 1551 1554 1557 1560 1562 1565 1565 1565 1566 1566 1564 1564 1564 1564 1563 1562 1562 1561 1560 1559 1559 1560 1559 1559
1507 1515 1522 1530 1538 1538 1542 1519 1485 1481 1477 1483 1487 1492 1499 1504 1510 1515 1522 1527 1531 1535 1539 1543 1547 1550 1553 1556 1559 1564 1564 1563 1564 1563 1564 1564 1564 1563 1562 1561 1561 1560 1559 1559 1559 1560 1560 1559 1558
1476 1492 1507 1525 1528 1534 1537 1519 1474 1476 1474 1477 1483 1489 1496 1502 1507 1513 1519 1524 1529 1533 1537 1541 1546 1549 1552 1556 1559 1560 1562 1562 1562 1563 1563 1563 1564 1562 1562 1561 1560 1560 1559 1559 1560 1560 1559 1558 1557